Charleston Weather Center

Moon Phase Calendar



Online Cameras

 


      

Current Conditions in Charleston
4/19/2021 12:12:22 PM

75°F
Feels Like 74
Clouds
Humidity
35%
Pressure
29.83"
Wind
13.8 mph (WNW)
Dew Point
46°F
UV Index
8/10 (Very High)
Visibility
6 mi

Hourly Forecast

Date & Time Mon, Apr 19
12:00 PM
Mon, Apr 19
1:00 PM
Mon, Apr 19
2:00 PM
Mon, Apr 19
3:00 PM
Mon, Apr 19
4:00 PM
Mon, Apr 19
5:00 PM
Mon, Apr 19
6:00 PM
Mon, Apr 19
7:00 PM
Mon, Apr 19
8:00 PM
Mon, Apr 19
9:00 PM
Mon, Apr 19
10:00 PM
Mon, Apr 19
11:00 PM
Tue, Apr 20
12:00 AM
Tue, Apr 20
1:00 AM
Tue, Apr 20
2:00 AM
Tue, Apr 20
3:00 AM
Tue, Apr 20
4:00 AM
Tue, Apr 20
5:00 AM
Tue, Apr 20
6:00 AM
Tue, Apr 20
7:00 AM
Tue, Apr 20
8:00 AM
Tue, Apr 20
9:00 AM
Tue, Apr 20
10:00 AM
Tue, Apr 20
11:00 AM
Tue, Apr 20
12:00 PM
Tue, Apr 20
1:00 PM
Tue, Apr 20
2:00 PM
Tue, Apr 20
3:00 PM
Tue, Apr 20
4:00 PM
Tue, Apr 20
5:00 PM
Tue, Apr 20
6:00 PM
Tue, Apr 20
7:00 PM
Tue, Apr 20
8:00 PM
Tue, Apr 20
9:00 PM
Tue, Apr 20
10:00 PM
Tue, Apr 20
11:00 PM
Wed, Apr 21
12:00 AM
Wed, Apr 21
1:00 AM
Wed, Apr 21
2:00 AM
Wed, Apr 21
3:00 AM
Wed, Apr 21
4:00 AM
Wed, Apr 21
5:00 AM
Wed, Apr 21
6:00 AM
Wed, Apr 21
7:00 AM
Wed, Apr 21
8:00 AM
Wed, Apr 21
9:00 AM
Wed, Apr 21
10:00 AM
Wed, Apr 21
11:00 AM
Condition
Clouds

Clouds

Clouds

Clear

Clear

Clear

Clear

Clear

Clear

Clear

Clear

Clear

Clear

Clear

Clear

Clear

Clear

Clouds

Clouds

Clouds

Clouds

Clouds

Clouds

Clouds

Clouds

Clouds

Clouds

Clouds

Clouds

Clouds

Clouds

Clouds

Clouds

Clear

Clear

Clear

Clear

Clear

Rain

Rain

Rain

Clear

Clear

Clear

Clear

Clear

Clear

Clear
Temperature 75°F75°F75°F76°F76°F75°F74°F71°F67°F65°F62°F61°F60°F59°F59°F58°F58°F59°F60°F59°F62°F66°F68°F70°F71°F72°F73°F73°F72°F71°F70°F68°F65°F64°F64°F64°F64°F64°F63°F63°F62°F61°F60°F60°F62°F65°F70°F74°F
Feels Like 74°F74°F74°F75°F74°F74°F73°F70°F66°F64°F61°F59°F58°F58°F57°F57°F57°F58°F58°F58°F61°F65°F67°F69°F70°F71°F72°F72°F71°F70°F69°F67°F64°F64°F64°F64°F64°F64°F63°F63°F62°F61°F60°F60°F62°F65°F69°F73°F
Cloudiness 20%29%33%8%4%0%0%1%1%0%0%0%0%0%0%5%7%37%53%56%56%24%50%40%37%33%44%32%32%26%21%18%16%4%5%6%6%8%8%4%2%1%1%1%1%0%0%0%
Visibility 6 mi6 mi6 mi6 mi6 mi6 mi6 mi6 mi6 mi6 mi6 mi6 mi6 mi6 mi6 mi6 mi6 mi6 mi6 mi6 mi6 mi6 mi6 mi6 mi6 mi6 mi6 mi6 mi6 mi6 mi6 mi6 mi6 mi6 mi6 mi6 mi6 mi6 mi6 mi6 mi6 mi6 mi6 mi6 mi6 mi6 mi6 mi6 mi
Precipitation 0%0%0%0%0%0%0%0%0%0%0%0%0%0%0%0%0%0%0%0%0%0%0%0%0%0%0%0%0%0%0%0%0%0%0%2%10%25%53%75%71%59%56%48%44%0%0%0%
Humidity 35%34%32%30%30%31%35%42%49%54%57%58%62%65%67%66%67%65%67%69%64%53%48%46%45%44%44%44%46%48%52%60%69%75%78%80%82%85%89%89%90%92%94%94%89%76%56%43%
Dew Point 46°F45°F44°F42°F42°F42°F45°F48°F48°F48°F47°F46°F47°F47°F48°F47°F47°F48°F49°F49°F50°F49°F48°F48°F48°F48°F49°F49°F50°F50°F52°F54°F55°F56°F57°F58°F58°F59°F59°F60°F59°F59°F58°F58°F59°F58°F54°F50°F
Pressure 29.83"29.83"29.83"29.83"29.83"29.83"29.85"29.88"29.91"29.94"29.97"29.97"29.97"30"30"30"30"30"30"30.03"30.06"30.06"30.06"30.09"30.09"30.06"30.03"30.03"30"30"29.97"30"30"30"30"29.97"29.97"29.97"29.94"29.94"29.91"29.91"29.91"29.91"29.94"29.94"29.94"29.94"
Wind Speed 12.7 mph13.2 mph13.1 mph12.5 mph12.2 mph12.3 mph10.8 mph8.6 mph10 mph9.5 mph8.9 mph7.9 mph8 mph7.8 mph7 mph5.5 mph5.4 mph5.9 mph6.9 mph6.5 mph7.1 mph9 mph10.6 mph10.2 mph9.8 mph9.4 mph9.4 mph9.4 mph9.3 mph9.5 mph9.6 mph8.6 mph6.6 mph6.9 mph6.3 mph6 mph6.1 mph5.9 mph5.7 mph6.1 mph5.8 mph6.7 mph6.6 mph6.8 mph7.8 mph9.9 mph10.7 mph11.9 mph
Wind
Direction
281°
W
276°
W
282°
WNW
292°
WNW
303°
WNW
311°
NW
315°
NW
333°
NNW

N
17°
NNE
32°
NNE
43°
NE
58°
ENE
63°
ENE
69°
ENE
77°
ENE
80°
E
81°
E
88°
E
75°
ENE
84°
E
101°
E
107°
ESE
117°
ESE
124°
SE
125°
SE
120°
ESE
132°
SE
127°
SE
125°
SE
116°
ESE
123°
ESE
123°
ESE
130°
SE
142°
SE
152°
SSE
158°
SSE
173°
S
193°
SSW
213°
SSW
235°
SW
259°
W
261°
W
256°
WSW
257°
WSW
266°
W
275°
W
278°
W

Daily Forecast

Date High Low Precip. Humidity
Today
Apr 19

Clouds
76 °F
61 °F
24%
34%
Tuesday
Apr 20

Clouds
73 °F
58 °F
2%
44%
Wednesday
Apr 21

Rain
79 °F
58 °F
59%
32%
Thursday
Apr 22

Clouds
64 °F
48 °F
0%
29%
Friday
Apr 23

Clouds
69 °F
55 °F
0%
38%
Saturday
Apr 24

Rain
71 °F
61 °F
90%
83%
Sunday
Apr 25

Rain
78 °F
66 °F
100%
53%
Monday
Apr 26

Clouds
72 °F
60 °F
0%
58%
Tuesday
Apr 27

Clear
71 °F
60 °F
0%
43%
Wednesday
Apr 28

Clouds
74 °F
60 °F
0%
54%
Thursday
Apr 29

Clouds
76 °F
65 °F
1%
53%
Friday
Apr 30

Clear
79 °F
63 °F
0%
48%
Saturday
May 1

Rain
73 °F
55 °F
64%
66%
Sunday
May 2

Clouds
66 °F
53 °F
35%
39%
Monday
May 3

Clear
68 °F
55 °F
0%
39%
Tuesday
May 4

Clouds
74 °F
56 °F
0%
38%

Temperature 8-14 Day Outlook



Precipitation 8-14 Day Outlook




Quick Links
Charleston News
Charleston Photos
Charleston Videos




About Us
Contact Us
Site Map
Search Site
Advertise With Us
   
Charleston.USCoast.info
THE CHARLESTON WEBSITE

Copyright 2021, Coastal Town
Privacy    |    Legal